Location: The Saddle
(36.8333°N, 80.3417°W)
Time: 09:14:21
(UTC-04:00)

A-11 Canister half - Pass Details

Date: 05 June 2024
Orbit: 1515 x 1685 km, 47.2° (Epoch: 17 June)

Event Time Altitude Azimuth Distance (km) Brightness Sun altitude
Rises 01:45:40 0° 272° (W) 4,842 11.6 -30.3°
Reaches altitude 10° 01:49:02 10° 278° (W) 3,833 11.1 -30.2°
Maximum altitude 01:58:19 47° 350° (N) 1,990 9.8 -29.9°
Drops below altitude 10° 02:07:19 10° 63° (ENE) 3,713 11.4 -29.5°
Sets 02:10:31 0° 69° (ENE) 4,680 12.0 -29.4°
